<?xml version="1.0" encoding="UTF-8" standalone="no" ?>
<gpx xmlns="http://www.topografix.com/GPX/1/1" xmlns:xsi="http://www.w3.org/2001/XMLSchema-instance" xsi:schemaLocation="http://www.topografix.com/GPX/1/1 http://www.topografix.com/GPX/1/1/gpx.xsd" version="1.1" creator="VisuGPX - https://www.visugpx.com">
  <metadata>
    <name>VEF - 2025  - 10 km</name>
  </metadata>
  <trk>
    <name><![CDATA[10km-Villersenfraises2025-20401521]]></name>
    <extensions>
      <line xmlns="http://www.topografix.com/GPX/gpx_style/0/2">
        <color>0000ff</color>
        <opacity>0.75</opacity>
        <width>4</width>
          <extensions>
            <sens>1</sens>
          </extensions>
      </line>
    </extensions>
    <trkseg>
      <trkpt lat="50.18948" lon="4.4726">
        <ele>256</ele>
        <time>2024-12-16T14:00:16Z</time>
      </trkpt>
      <trkpt lat="50.18968" lon="4.47292">
        <ele>256</ele>
        <time>2024-12-16T13:59:37Z</time>
      </trkpt>
      <trkpt lat="50.18972" lon="4.47309">
        <ele>256</ele>
        <time>2024-12-16T13:59:22Z</time>
      </trkpt>
      <trkpt lat="50.18996" lon="4.47292">
        <ele>257</ele>
        <time>2024-12-16T13:58:47Z</time>
      </trkpt>
      <trkpt lat="50.1906" lon="4.47252">
        <ele>261</ele>
        <time>2024-12-16T13:57:15Z</time>
      </trkpt>
      <trkpt lat="50.19239" lon="4.47208">
        <ele>273</ele>
        <time>2024-12-16T13:53:13Z</time>
      </trkpt>
      <trkpt lat="50.19392" lon="4.47053">
        <ele>282</ele>
        <time>2024-12-16T13:49:10Z</time>
      </trkpt>
      <trkpt lat="50.19424" lon="4.47026">
        <ele>283</ele>
        <time>2024-12-16T13:48:21Z</time>
      </trkpt>
      <trkpt lat="50.19429" lon="4.47022">
        <ele>284</ele>
        <time>2024-12-16T13:48:13Z</time>
      </trkpt>
      <trkpt lat="50.19494" lon="4.46925">
        <ele>285</ele>
        <time>2024-12-16T13:46:14Z</time>
      </trkpt>
      <trkpt lat="50.19524" lon="4.4689">
        <ele>284</ele>
        <time>2024-12-16T13:45:24Z</time>
      </trkpt>
      <trkpt lat="50.1961" lon="4.46826">
        <ele>283</ele>
        <time>2024-12-16T13:43:16Z</time>
      </trkpt>
      <trkpt lat="50.19608" lon="4.46789">
        <ele>282</ele>
        <time>2024-12-16T13:42:45Z</time>
      </trkpt>
      <trkpt lat="50.19606" lon="4.4676">
        <ele>282</ele>
        <time>2024-12-16T13:42:20Z</time>
      </trkpt>
      <trkpt lat="50.19605" lon="4.46722">
        <ele>282</ele>
        <time>2024-12-16T13:41:47Z</time>
      </trkpt>
      <trkpt lat="50.19595" lon="4.46577">
        <ele>284</ele>
        <time>2024-12-16T13:39:43Z</time>
      </trkpt>
      <trkpt lat="50.19595" lon="4.46557">
        <ele>284</ele>
        <time>2024-12-16T13:39:26Z</time>
      </trkpt>
      <trkpt lat="50.19598" lon="4.46534">
        <ele>284</ele>
        <time>2024-12-16T13:39:06Z</time>
      </trkpt>
      <trkpt lat="50.19619" lon="4.46454">
        <ele>284</ele>
        <time>2024-12-16T13:37:52Z</time>
      </trkpt>
      <trkpt lat="50.1965" lon="4.46262">
        <ele>283</ele>
        <time>2024-12-16T13:35:03Z</time>
      </trkpt>
      <trkpt lat="50.19668" lon="4.46131">
        <ele>283</ele>
        <time>2024-12-16T13:33:08Z</time>
      </trkpt>
      <trkpt lat="50.19672" lon="4.46109">
        <ele>284</ele>
        <time>2024-12-16T13:32:49Z</time>
      </trkpt>
      <trkpt lat="50.19704" lon="4.45925">
        <ele>292</ele>
        <time>2024-12-16T13:30:06Z</time>
      </trkpt>
      <trkpt lat="50.19738" lon="4.45591">
        <ele>294</ele>
        <time>2024-12-16T13:25:17Z</time>
      </trkpt>
      <trkpt lat="50.19742" lon="4.45514">
        <ele>291</ele>
        <time>2024-12-16T13:24:11Z</time>
      </trkpt>
      <trkpt lat="50.19742" lon="4.45503">
        <ele>291</ele>
        <time>2024-12-16T13:24:01Z</time>
      </trkpt>
      <trkpt lat="50.19742" lon="4.45514">
        <ele>291</ele>
        <time>2024-12-16T13:23:52Z</time>
      </trkpt>
      <trkpt lat="50.19748" lon="4.45514">
        <ele>291</ele>
        <time>2024-12-16T13:23:44Z</time>
      </trkpt>
      <trkpt lat="50.19892" lon="4.45493">
        <ele>285</ele>
        <time>2024-12-16T13:20:31Z</time>
      </trkpt>
      <trkpt lat="50.2013" lon="4.45493">
        <ele>277</ele>
        <time>2024-12-16T13:15:13Z</time>
      </trkpt>
      <trkpt lat="50.20207" lon="4.45465">
        <ele>268</ele>
        <time>2024-12-16T13:13:28Z</time>
      </trkpt>
      <trkpt lat="50.20236" lon="4.45456">
        <ele>265</ele>
        <time>2024-12-16T13:12:48Z</time>
      </trkpt>
      <trkpt lat="50.20241" lon="4.45454">
        <ele>264</ele>
        <time>2024-12-16T13:12:42Z</time>
      </trkpt>
      <trkpt lat="50.20336" lon="4.45488">
        <ele>255</ele>
        <time>2024-12-16T13:10:31Z</time>
      </trkpt>
      <trkpt lat="50.20369" lon="4.45514">
        <ele>251</ele>
        <time>2024-12-16T13:09:42Z</time>
      </trkpt>
      <trkpt lat="50.20476" lon="4.45534">
        <ele>244</ele>
        <time>2024-12-16T13:07:18Z</time>
      </trkpt>
      <trkpt lat="50.20553" lon="4.45588">
        <ele>244</ele>
        <time>2024-12-16T13:05:26Z</time>
      </trkpt>
      <trkpt lat="50.20725" lon="4.45714">
        <ele>237</ele>
        <time>2024-12-16T13:01:12Z</time>
      </trkpt>
      <trkpt lat="50.20733" lon="4.45722">
        <ele>237</ele>
        <time>2024-12-16T13:01:00Z</time>
      </trkpt>
      <trkpt lat="50.20736" lon="4.45725">
        <ele>237</ele>
        <time>2024-12-16T13:00:55Z</time>
      </trkpt>
      <trkpt lat="50.20747" lon="4.4572">
        <ele>237</ele>
        <time>2024-12-16T13:00:39Z</time>
      </trkpt>
      <trkpt lat="50.2076" lon="4.45718">
        <ele>238</ele>
        <time>2024-12-16T13:00:22Z</time>
      </trkpt>
      <trkpt lat="50.20769" lon="4.45711">
        <ele>239</ele>
        <time>2024-12-16T13:00:09Z</time>
      </trkpt>
      <trkpt lat="50.20777" lon="4.45684">
        <ele>240</ele>
        <time>2024-12-16T12:59:43Z</time>
      </trkpt>
      <trkpt lat="50.20786" lon="4.45636">
        <ele>240</ele>
        <time>2024-12-16T12:59:01Z</time>
      </trkpt>
      <trkpt lat="50.20791" lon="4.456">
        <ele>241</ele>
        <time>2024-12-16T12:58:29Z</time>
      </trkpt>
      <trkpt lat="50.20794" lon="4.45583">
        <ele>241</ele>
        <time>2024-12-16T12:58:14Z</time>
      </trkpt>
      <trkpt lat="50.20799" lon="4.45567">
        <ele>241</ele>
        <time>2024-12-16T12:57:59Z</time>
      </trkpt>
      <trkpt lat="50.20807" lon="4.45551">
        <ele>241</ele>
        <time>2024-12-16T12:57:41Z</time>
      </trkpt>
      <trkpt lat="50.2079" lon="4.45523">
        <ele>240</ele>
        <time>2024-12-16T12:57:08Z</time>
      </trkpt>
      <trkpt lat="50.20782" lon="4.45507">
        <ele>239</ele>
        <time>2024-12-16T12:56:51Z</time>
      </trkpt>
      <trkpt lat="50.20774" lon="4.45476">
        <ele>240</ele>
        <time>2024-12-16T12:56:23Z</time>
      </trkpt>
      <trkpt lat="50.20742" lon="4.45238">
        <ele>241</ele>
        <time>2024-12-16T12:52:55Z</time>
      </trkpt>
      <trkpt lat="50.20741" lon="4.45234">
        <ele>241</ele>
        <time>2024-12-16T12:52:51Z</time>
      </trkpt>
      <trkpt lat="50.20742" lon="4.45238">
        <ele>241</ele>
        <time>2024-12-16T12:52:48Z</time>
      </trkpt>
      <trkpt lat="50.20761" lon="4.45183">
        <ele>242</ele>
        <time>2024-12-16T12:51:54Z</time>
      </trkpt>
      <trkpt lat="50.2079" lon="4.45115">
        <ele>245</ele>
        <time>2024-12-16T12:50:44Z</time>
      </trkpt>
      <trkpt lat="50.20806" lon="4.4504">
        <ele>246</ele>
        <time>2024-12-16T12:49:37Z</time>
      </trkpt>
      <trkpt lat="50.20807" lon="4.44969">
        <ele>245</ele>
        <time>2024-12-16T12:48:36Z</time>
      </trkpt>
      <trkpt lat="50.20804" lon="4.44915">
        <ele>245</ele>
        <time>2024-12-16T12:47:50Z</time>
      </trkpt>
      <trkpt lat="50.20821" lon="4.4482">
        <ele>243</ele>
        <time>2024-12-16T12:46:26Z</time>
      </trkpt>
      <trkpt lat="50.20822" lon="4.44742">
        <ele>242</ele>
        <time>2024-12-16T12:45:19Z</time>
      </trkpt>
      <trkpt lat="50.20821" lon="4.44679">
        <ele>241</ele>
        <time>2024-12-16T12:44:25Z</time>
      </trkpt>
      <trkpt lat="50.2082" lon="4.44636">
        <ele>241</ele>
        <time>2024-12-16T12:43:48Z</time>
      </trkpt>
      <trkpt lat="50.20825" lon="4.44609">
        <ele>241</ele>
        <time>2024-12-16T12:43:24Z</time>
      </trkpt>
      <trkpt lat="50.20824" lon="4.44576">
        <ele>241</ele>
        <time>2024-12-16T12:42:56Z</time>
      </trkpt>
      <trkpt lat="50.20827" lon="4.44539">
        <ele>240</ele>
        <time>2024-12-16T12:42:24Z</time>
      </trkpt>
      <trkpt lat="50.20838" lon="4.44492">
        <ele>241</ele>
        <time>2024-12-16T12:41:42Z</time>
      </trkpt>
      <trkpt lat="50.20849" lon="4.44451">
        <ele>242</ele>
        <time>2024-12-16T12:41:04Z</time>
      </trkpt>
      <trkpt lat="50.20855" lon="4.44425">
        <ele>243</ele>
        <time>2024-12-16T12:40:40Z</time>
      </trkpt>
      <trkpt lat="50.20857" lon="4.44413">
        <ele>243</ele>
        <time>2024-12-16T12:40:29Z</time>
      </trkpt>
      <trkpt lat="50.2086" lon="4.44391">
        <ele>244</ele>
        <time>2024-12-16T12:40:10Z</time>
      </trkpt>
      <trkpt lat="50.20867" lon="4.44329">
        <ele>246</ele>
        <time>2024-12-16T12:39:17Z</time>
      </trkpt>
      <trkpt lat="50.2087" lon="4.44316">
        <ele>246</ele>
        <time>2024-12-16T12:39:05Z</time>
      </trkpt>
      <trkpt lat="50.20875" lon="4.44305">
        <ele>247</ele>
        <time>2024-12-16T12:38:53Z</time>
      </trkpt>
      <trkpt lat="50.20882" lon="4.44299">
        <ele>248</ele>
        <time>2024-12-16T12:38:43Z</time>
      </trkpt>
      <trkpt lat="50.20889" lon="4.443">
        <ele>249</ele>
        <time>2024-12-16T12:38:33Z</time>
      </trkpt>
      <trkpt lat="50.20905" lon="4.44318">
        <ele>252</ele>
        <time>2024-12-16T12:38:07Z</time>
      </trkpt>
      <trkpt lat="50.2091" lon="4.4433">
        <ele>253</ele>
        <time>2024-12-16T12:37:55Z</time>
      </trkpt>
      <trkpt lat="50.20915" lon="4.44365">
        <ele>254</ele>
        <time>2024-12-16T12:37:24Z</time>
      </trkpt>
      <trkpt lat="50.20936" lon="4.4439">
        <ele>255</ele>
        <time>2024-12-16T12:36:49Z</time>
      </trkpt>
      <trkpt lat="50.2097" lon="4.44405">
        <ele>258</ele>
        <time>2024-12-16T12:36:02Z</time>
      </trkpt>
      <trkpt lat="50.20999" lon="4.44408">
        <ele>260</ele>
        <time>2024-12-16T12:35:23Z</time>
      </trkpt>
      <trkpt lat="50.21077" lon="4.44406">
        <ele>260</ele>
        <time>2024-12-16T12:33:39Z</time>
      </trkpt>
      <trkpt lat="50.21191" lon="4.44444">
        <ele>264</ele>
        <time>2024-12-16T12:31:03Z</time>
      </trkpt>
      <trkpt lat="50.21189" lon="4.44508">
        <ele>264</ele>
        <time>2024-12-16T12:30:08Z</time>
      </trkpt>
      <trkpt lat="50.21182" lon="4.44669">
        <ele>265</ele>
        <time>2024-12-16T12:27:51Z</time>
      </trkpt>
      <trkpt lat="50.21202" lon="4.44806">
        <ele>266</ele>
        <time>2024-12-16T12:25:51Z</time>
      </trkpt>
      <trkpt lat="50.21205" lon="4.44863">
        <ele>266</ele>
        <time>2024-12-16T12:25:02Z</time>
      </trkpt>
      <trkpt lat="50.21195" lon="4.44989">
        <ele>268</ele>
        <time>2024-12-16T12:23:13Z</time>
      </trkpt>
      <trkpt lat="50.21182" lon="4.45028">
        <ele>269</ele>
        <time>2024-12-16T12:22:36Z</time>
      </trkpt>
      <trkpt lat="50.21167" lon="4.45086">
        <ele>270</ele>
        <time>2024-12-16T12:21:42Z</time>
      </trkpt>
      <trkpt lat="50.21136" lon="4.45197">
        <ele>268</ele>
        <time>2024-12-16T12:19:59Z</time>
      </trkpt>
      <trkpt lat="50.2111" lon="4.4532">
        <ele>267</ele>
        <time>2024-12-16T12:18:08Z</time>
      </trkpt>
      <trkpt lat="50.21121" lon="4.45409">
        <ele>268</ele>
        <time>2024-12-16T12:16:51Z</time>
      </trkpt>
      <trkpt lat="50.2113" lon="4.45629">
        <ele>266</ele>
        <time>2024-12-16T12:13:43Z</time>
      </trkpt>
      <trkpt lat="50.21111" lon="4.45832">
        <ele>267</ele>
        <time>2024-12-16T12:10:47Z</time>
      </trkpt>
      <trkpt lat="50.21102" lon="4.45908">
        <ele>266</ele>
        <time>2024-12-16T12:09:41Z</time>
      </trkpt>
      <trkpt lat="50.21094" lon="4.45902">
        <ele>266</ele>
        <time>2024-12-16T12:09:30Z</time>
      </trkpt>
      <trkpt lat="50.21093" lon="4.45909">
        <ele>266</ele>
        <time>2024-12-16T12:09:23Z</time>
      </trkpt>
      <trkpt lat="50.21092" lon="4.45925">
        <ele>266</ele>
        <time>2024-12-16T12:09:10Z</time>
      </trkpt>
      <trkpt lat="50.21091" lon="4.46017">
        <ele>266</ele>
        <time>2024-12-16T12:07:51Z</time>
      </trkpt>
      <trkpt lat="50.21071" lon="4.46274">
        <ele>267</ele>
        <time>2024-12-16T12:04:10Z</time>
      </trkpt>
      <trkpt lat="50.21048" lon="4.46456">
        <ele>268</ele>
        <time>2024-12-16T12:01:32Z</time>
      </trkpt>
      <trkpt lat="50.21048" lon="4.46469">
        <ele>268</ele>
        <time>2024-12-16T12:01:21Z</time>
      </trkpt>
      <trkpt lat="50.21054" lon="4.46491">
        <ele>268</ele>
        <time>2024-12-16T12:01:00Z</time>
      </trkpt>
      <trkpt lat="50.21046" lon="4.46515">
        <ele>268</ele>
        <time>2024-12-16T12:00:37Z</time>
      </trkpt>
      <trkpt lat="50.21048" lon="4.46526">
        <ele>268</ele>
        <time>2024-12-16T12:00:27Z</time>
      </trkpt>
      <trkpt lat="50.21048" lon="4.46546">
        <ele>268</ele>
        <time>2024-12-16T12:00:10Z</time>
      </trkpt>
      <trkpt lat="50.21028" lon="4.46658">
        <ele>267</ele>
        <time>2024-12-16T11:58:31Z</time>
      </trkpt>
      <trkpt lat="50.21015" lon="4.46719">
        <ele>267</ele>
        <time>2024-12-16T11:57:36Z</time>
      </trkpt>
      <trkpt lat="50.21004" lon="4.46816">
        <ele>266</ele>
        <time>2024-12-16T11:56:12Z</time>
      </trkpt>
      <trkpt lat="50.20982" lon="4.47039">
        <ele>268</ele>
        <time>2024-12-16T11:52:59Z</time>
      </trkpt>
      <trkpt lat="50.20975" lon="4.47151">
        <ele>269</ele>
        <time>2024-12-16T11:51:23Z</time>
      </trkpt>
      <trkpt lat="50.20972" lon="4.47203">
        <ele>269</ele>
        <time>2024-12-16T11:50:38Z</time>
      </trkpt>
      <trkpt lat="50.20965" lon="4.47252">
        <ele>269</ele>
        <time>2024-12-16T11:49:56Z</time>
      </trkpt>
      <trkpt lat="50.20952" lon="4.47296">
        <ele>269</ele>
        <time>2024-12-16T11:49:14Z</time>
      </trkpt>
      <trkpt lat="50.2094" lon="4.47337">
        <ele>269</ele>
        <time>2024-12-16T11:48:36Z</time>
      </trkpt>
      <trkpt lat="50.20917" lon="4.47499">
        <ele>269</ele>
        <time>2024-12-16T11:46:14Z</time>
      </trkpt>
      <trkpt lat="50.20891" lon="4.47854">
        <ele>266</ele>
        <time>2024-12-16T11:41:09Z</time>
      </trkpt>
      <trkpt lat="50.20887" lon="4.47895">
        <ele>266</ele>
        <time>2024-12-16T11:40:33Z</time>
      </trkpt>
      <trkpt lat="50.20886" lon="4.47869">
        <ele>265</ele>
        <time>2024-12-16T11:40:11Z</time>
      </trkpt>
      <trkpt lat="50.20882" lon="4.47848">
        <ele>265</ele>
        <time>2024-12-16T11:39:52Z</time>
      </trkpt>
      <trkpt lat="50.20875" lon="4.4782">
        <ele>264</ele>
        <time>2024-12-16T11:39:27Z</time>
      </trkpt>
      <trkpt lat="50.20865" lon="4.47799">
        <ele>264</ele>
        <time>2024-12-16T11:39:04Z</time>
      </trkpt>
      <trkpt lat="50.2086" lon="4.47791">
        <ele>263</ele>
        <time>2024-12-16T11:38:55Z</time>
      </trkpt>
      <trkpt lat="50.20825" lon="4.47732">
        <ele>262</ele>
        <time>2024-12-16T11:37:46Z</time>
      </trkpt>
      <trkpt lat="50.20788" lon="4.47672">
        <ele>260</ele>
        <time>2024-12-16T11:36:35Z</time>
      </trkpt>
      <trkpt lat="50.20773" lon="4.47645">
        <ele>259</ele>
        <time>2024-12-16T11:36:04Z</time>
      </trkpt>
      <trkpt lat="50.20746" lon="4.47584">
        <ele>258</ele>
        <time>2024-12-16T11:35:01Z</time>
      </trkpt>
      <trkpt lat="50.20726" lon="4.47521">
        <ele>255</ele>
        <time>2024-12-16T11:34:01Z</time>
      </trkpt>
      <trkpt lat="50.20717" lon="4.47502">
        <ele>254</ele>
        <time>2024-12-16T11:33:41Z</time>
      </trkpt>
      <trkpt lat="50.20685" lon="4.47399">
        <ele>252</ele>
        <time>2024-12-16T11:32:03Z</time>
      </trkpt>
      <trkpt lat="50.20667" lon="4.47331">
        <ele>251</ele>
        <time>2024-12-16T11:31:00Z</time>
      </trkpt>
      <trkpt lat="50.20654" lon="4.47214">
        <ele>250</ele>
        <time>2024-12-16T11:29:19Z</time>
      </trkpt>
      <trkpt lat="50.20644" lon="4.47184">
        <ele>250</ele>
        <time>2024-12-16T11:28:50Z</time>
      </trkpt>
      <trkpt lat="50.20635" lon="4.47135">
        <ele>249</ele>
        <time>2024-12-16T11:28:06Z</time>
      </trkpt>
      <trkpt lat="50.20633" lon="4.47113">
        <ele>249</ele>
        <time>2024-12-16T11:27:47Z</time>
      </trkpt>
      <trkpt lat="50.20639" lon="4.47062">
        <ele>248</ele>
        <time>2024-12-16T11:27:03Z</time>
      </trkpt>
      <trkpt lat="50.20641" lon="4.47013">
        <ele>248</ele>
        <time>2024-12-16T11:26:21Z</time>
      </trkpt>
      <trkpt lat="50.20632" lon="4.46991">
        <ele>248</ele>
        <time>2024-12-16T11:25:59Z</time>
      </trkpt>
      <trkpt lat="50.20627" lon="4.46981">
        <ele>248</ele>
        <time>2024-12-16T11:25:48Z</time>
      </trkpt>
      <trkpt lat="50.20616" lon="4.46966">
        <ele>248</ele>
        <time>2024-12-16T11:25:29Z</time>
      </trkpt>
      <trkpt lat="50.20477" lon="4.46812">
        <ele>250</ele>
        <time>2024-12-16T11:21:41Z</time>
      </trkpt>
      <trkpt lat="50.20407" lon="4.46748">
        <ele>252</ele>
        <time>2024-12-16T11:19:53Z</time>
      </trkpt>
      <trkpt lat="50.20347" lon="4.46711">
        <ele>256</ele>
        <time>2024-12-16T11:18:27Z</time>
      </trkpt>
      <trkpt lat="50.20235" lon="4.46669">
        <ele>266</ele>
        <time>2024-12-16T11:15:53Z</time>
      </trkpt>
      <trkpt lat="50.20113" lon="4.4663">
        <ele>272</ele>
        <time>2024-12-16T11:13:07Z</time>
      </trkpt>
      <trkpt lat="50.20093" lon="4.4664">
        <ele>273</ele>
        <time>2024-12-16T11:12:39Z</time>
      </trkpt>
      <trkpt lat="50.19893" lon="4.46679">
        <ele>276</ele>
        <time>2024-12-16T11:08:10Z</time>
      </trkpt>
      <trkpt lat="50.19831" lon="4.46727">
        <ele>277</ele>
        <time>2024-12-16T11:06:38Z</time>
      </trkpt>
      <trkpt lat="50.19781" lon="4.46761">
        <ele>276</ele>
        <time>2024-12-16T11:05:25Z</time>
      </trkpt>
      <trkpt lat="50.1963" lon="4.46816">
        <ele>282</ele>
        <time>2024-12-16T11:01:58Z</time>
      </trkpt>
      <trkpt lat="50.1961" lon="4.46826">
        <ele>283</ele>
        <time>2024-12-16T11:01:30Z</time>
      </trkpt>
      <trkpt lat="50.19524" lon="4.4689">
        <ele>284</ele>
        <time>2024-12-16T10:59:23Z</time>
      </trkpt>
      <trkpt lat="50.19494" lon="4.46925">
        <ele>285</ele>
        <time>2024-12-16T10:58:33Z</time>
      </trkpt>
      <trkpt lat="50.19429" lon="4.47022">
        <ele>284</ele>
        <time>2024-12-16T10:56:33Z</time>
      </trkpt>
      <trkpt lat="50.19424" lon="4.47026">
        <ele>283</ele>
        <time>2024-12-16T10:56:25Z</time>
      </trkpt>
      <trkpt lat="50.19392" lon="4.47053">
        <ele>282</ele>
        <time>2024-12-16T10:55:37Z</time>
      </trkpt>
      <trkpt lat="50.19239" lon="4.47208">
        <ele>273</ele>
        <time>2024-12-16T10:51:33Z</time>
      </trkpt>
      <trkpt lat="50.1906" lon="4.47252">
        <ele>261</ele>
        <time>2024-12-16T10:47:32Z</time>
      </trkpt>
      <trkpt lat="50.18996" lon="4.47292">
        <ele>257</ele>
        <time>2024-12-16T10:46:00Z</time>
      </trkpt>
      <trkpt lat="50.18972" lon="4.47309">
        <ele>256</ele>
        <time>2024-12-16T10:45:25Z</time>
      </trkpt>
      <trkpt lat="50.18968" lon="4.47292">
        <ele>256</ele>
        <time>2024-12-16T10:45:09Z</time>
      </trkpt>
      <trkpt lat="50.18948" lon="4.4726">
        <ele>256</ele>
        <time>2024-12-16T10:44:31Z</time>
      </trkpt>
      <trkpt lat="50.18942" lon="4.47251">
        <ele>256</ele>
        <time>2024-12-16T10:44:20Z</time>
      </trkpt>
      <trkpt lat="50.18922" lon="4.47225">
        <ele>255</ele>
        <time>2024-12-16T10:43:45Z</time>
      </trkpt>
    </trkseg>
  </trk>
</gpx>